Regional Weather Roundup
Issued by NWS

Home | Current Version | Previous Version | Text Only | Print | Product List | Glossary On
Versions: 1 2 3 4 5 6 7 8 9 10 11 12 13 14 15 16 17 18 19 20 21 22 23 24 25 26 27 28 29 30 31 32 33 34 35 36 37 38 39 40 41 42 43 44 45 46 47 48 49 50
000
ASUS43 KMKX 240800
RWRWI

WISCONSIN REGIONAL WEATHER ROUNDUP
NATIONAL WEATHER SERVICE MILWAUKEE/SULLIVAN WI
300 AM CDT MON JUL 24 2017

NOTE: "FAIR" INDICATES FEW OR NO CLOUDS BELOW 12,000 FEET WITH NO
SIGNIFICANT WEATHER AND/OR OBSTRUCTIONS TO VISIBILITY.

WIZ001-002-006>008-014>016-023>028-240900-
NORTHWEST WISCONSIN

CITY           SKY/WX    TMP DP  RH WIND       PRES   REMARKS
SUPERIOR ARPT  NOT AVBL
ASHLAND        CLOUDY    55  54  96 CALM      30.06F FOG
HAYWARD        FOG       50  48  93 NE3       30.06R VSB 1/4
SIREN          CLEAR     51  51  97 CALM      30.05S FOG
CUMBERLAND     CLEAR     54  52  94 CALM      30.05S
RICE LAKE      CLEAR     55  53  95 CALM      30.05S FOG
CHETEK         CLEAR     58  56  95 NE3       30.04R
LADYSMITH      CLEAR     55  54  96 CALM      30.06R
EAU CLAIRE     NOT AVBL
MENOMONIE      CLEAR     59  56  89 N3        30.03S
NEW RICHMOND   CLEAR     55  54  97 CALM      30.04S
OSCEOLA        CLEAR     55  55 100 CALM      30.07R
$$

WIZ003>005-009-010-017-018-240900-
NORTH CENTRAL WISCONSIN

CITY           SKY/WX    TMP DP  RH WIND       PRES   REMARKS
MANITOWISH WTR CLOUDY    53  53 100 NE3       30.06S FOG
ARBOR VITAE    CLOUDY    54  53  97 N3        30.05R
WOODRUFF       CLOUDY    54  53  97 N3        30.05R
RHINELANDER    PTCLDY    52  52 100 CALM      30.05S
EAGLE RIVER    PTCLDY    49  49 100 CALM      30.06R
LAND O LAKES   FOG       52  52 100 N3        30.08R VSB 1/4
PHILLIPS       CLEAR     51  51 100 CALM      30.04S
TOMAHAWK         N/A     48  47  97 CALM      30.05R FOG
MEDFORD        CLEAR     53  51  95 N5        30.03R
MERRILL        NOT AVBL
$$

WIZ029-030-035-036-043>047-240900-
CENTRAL WISCONSIN

CITY           SKY/WX    TMP DP  RH WIND       PRES   REMARKS
WAUSAU         CLEAR     56  54  93 N6        30.01S
MOSINEE        CLEAR     55  54  94 N7        30.02F
MARSHFIELD     CLEAR     56  52  86 NE6       30.02R
STEVENS POINT  CLOUDY    56  55  94 NE10      30.02R
WAUPACA        CLOUDY    63  55  75 NE6       30.01R
WAUTOMA        CLOUDY    62  55  77 VRB6      30.01R
WISC RAPIDS    MOCLDY    59  54  83 E7        30.03R
CAMP DOUGLAS   FOG       52  52 100 CALM      30.01R VSB 1
$$

WIZ011>013-019>022-031-037>040-048>050-240900-
NORTHEAST WISCONSIN

CITY           SKY/WX    TMP DP  RH WIND       PRES   REMARKS
ANTIGO         CLOUDY    54  53  97 NE9       30.03S
SHAWANO        CLOUDY    62  55  79 NE10      30.00S
OCONTO         CLOUDY    60  55  83 N10       29.99R
STURGEON BAY     N/A     61  57  87 N10       29.99R
GREEN BAY      CLOUDY    62  58  86 N8        29.99R
MANITOWOC      CLOUDY    63  57  82 N9        29.97R
APPLETON       CLOUDY    59  52  77 N9        29.98R
CLINTONVILLE   CLOUDY    61  54  77 NE6       30.01R
OSHKOSH        CLOUDY    63  56  78 N12       29.97S
$$

WIZ032>034-041-042-053>061-240900-
SOUTHWEST WISCONSIN

CITY           SKY/WX    TMP DP  RH WIND       PRES   REMARKS
LA CROSSE      PTCLDY    64  60  87 N5        30.00R
SPARTA         CLEAR     56  55  97 CALM      30.02R
VIROQUA        CLEAR     59  59 100 CALM      30.01R
BOSCOBEL       CLEAR     63  60  90 CALM      29.98R
PRAIRIE DU CHI CLEAR     64  58  80 NW3       29.98R
PLATTEVILLE    MOCLDY    63  63 100 N6        29.97S
$$

WIZ056-057-062-063-064-067-068-240900-
SOUTH CENTRAL WISCONSIN

CITY           SKY/WX    TMP DP  RH WIND       PRES   REMARKS
REEDSBURG      MOCLDY    60  56  87 NE5       29.99R
BARABOO/DELLS  CLOUDY    61  54  78 NE8       29.99R
LONE ROCK      PTCLDY    63  57  81 NE6       29.98R
MINERAL POINT  CLEAR     64  61  88 NE6       29.97S
MADISON        MOCLDY    60  57  89 N7        29.97S
MIDDLETON      CLEAR     60  59  95 N3        29.98S
WATERTOWN      CLOUDY    63  59  88 NE3       29.96S
MONROE         PTCLDY    63  59  88 NE12      29.95S
JANESVILLE     CLOUDY    66  59  77 N7        29.95R
$$

WIZ051-052-058>065-066-070>072-240900-
SOUTHEAST WISCONSIN

CITY           SKY/WX    TMP DP  RH WIND       PRES   REMARKS
MILWAUKEE      CLOUDY    65  59  81 N10       29.95R
WAUKESHA       MOCLDY    59  55  88 CALM      29.97S
MILWAUKEE/TIMM MOCLDY    61  55  82 N6        29.96S
RACINE         CLOUDY    65  61  87 N10       29.96S
KENOSHA        MOCLDY    65  60  84 N7        29.94S
FOND DU LAC    CLOUDY    65  55  70 NE13      29.97S
SHEBOYGAN      CLOUDY    62  60  93 N8        29.96S
WEST BEND      CLOUDY    61  59  94 N6        29.96S
JUNEAU         CLOUDY    63  56  80 CALM      29.98R
$$

LSZ147-162-240900-
LAKE SUPERIOR

STATION/POSITION TIME  TEMP    WIND        PRES    WAVE
                       AIR SEA DIR/SP/G            HT/PER
                 (UTC) (F)     (DEG/KT/KT) (MB)    (FT/S)
W MID LAKE BUOY  0650   51 48  180/  2/  2 1017.7S   1
DEVILS ISLAND    0700   54     250/  8/  9 1018.1R
SAXON HARBOR     0740   57     180/  3/  4 1017.6R
$$

LMZ867-665-643>646-240900-
LAKE MICHIGAN

STATION/POSITION TIME  TEMP    WIND        PRES    WAVE
                       AIR SEA DIR/SP/G            HT/PER
                 (UTC) (F)     (DEG/KT/KT) (MB)    (FT/S)
CHAMBERS ISLAND  0740   62      20/ 14/ 16 1014.9R
S GREEN BAY BUOY 0730   64 72   10/ 16/ 19 1014.9R
N MID LAKE BUOY  0650   62 66   40/ 16/ 19 1014.9R   4/ 6
NORTHPORT PIER   0740   61      20/  9/ 11 1015.2R
KEWAUNEE LAKESHO 0730   62     350/  5/ 11 1013.8S
SHEBOYGAN LAKESH 0700   63     360/ 19/ 22 1013.7R
PORT WASHINGTON  0740   65     350/  4/  7 1014.9S
MILWAUKEE LAKESH 0730   64     330/ 10/ 12   N/A
S MID LAKE BUOY  0650   67 70   10/ 17/ 21 1012.3R   5/ 5
KENOSHA   LAKESH 0700   67      10/ 19/ 21 1013.5
$$

TC  - TEMPERATURE IN CELSIUS
VSB - VISIBILITY IN STATUTE MILES
WCI - WIND CHILL INDEX
HX  - HEAT INDEX




USA.gov is the U.S. government's official web portal to all federal, state and local government web resources and services.